Regional Weather Roundup
Issued by NWS

Home | Current Version | Previous Version | Graphics & Text | Print | Product List | Glossary Off
Versions: 1 2 3 4 5 6 7 8 9 10 11 12 13 14 15 16 17 18 19 20 21 22 23 24 25 26 27 28 29 30 31 32 33 34 35 36 37 38 39 40 41 42 43 44 45 46 47 48 49 50

000
ASUS43 KMKX 051221
RWRWI

WISCONSIN REGIONAL WEATHER ROUNDUP
NATIONAL WEATHER SERVICE MILWAUKEE/SULLIVAN WI
700 AM CDT TUE MAY 05 2015

NOTE: "FAIR" INDICATES FEW OR NO CLOUDS BELOW 12,000 FEET WITH NO
SIGNIFICANT WEATHER AND/OR OBSTRUCTIONS TO VISIBILITY.

WIZ001-002-006>008-014>016-023>028-051300-
NORTHWEST WISCONSIN

CITY           SKY/WX    TMP DP  RH WIND       PRES   REMARKS
SUPERIOR ARPT  SUNNY     32  31  94 CALM      30.28R
6HR MIN TEMP:  28; 6HR MAX TEMP:  37;

ASHLAND        SUNNY     38  32  79 SW5       30.29R WCI  34
6HR MIN TEMP:  31; 6HR MAX TEMP:  38;

HAYWARD        SUNNY     42  33  70 CALM      30.28R
6HR MIN TEMP:  34; 6HR MAX TEMP:  42;

SIREN          SUNNY     35  29  80 CALM      30.25R
6HR MIN TEMP:  31; 6HR MAX TEMP:  39;

CUMBERLAND     SUNNY     46  32  57 E6        30.25S
RICE LAKE      SUNNY     50  33  51 E7        30.27R
6HR MIN TEMP:  39; 6HR MAX TEMP:  50;

CHETEK         SUNNY     49  37  63 NE3       30.26R
6HR MIN TEMP:  48; 6HR MAX TEMP:  54;

LADYSMITH      SUNNY     49  35  57 E6        30.29R
6HR MIN TEMP:  46; 6HR MAX TEMP:  51;

EAU CLAIRE     PTSUNNY   49  38  65 NE7       30.23R
6HR MIN TEMP:  46; 6HR MAX TEMP:  49;

MENOMONIE      SUNNY     48  40  72 E5        30.24R
6HR MIN TEMP:  47; 6HR MAX TEMP:  52;

NEW RICHMOND   SUNNY     49  35  58 E9        30.22S
6HR MIN TEMP:  45; 6HR MAX TEMP:  51;

OSCEOLA        SUNNY     50  36  59 E8        30.25R
6HR MIN TEMP:  39; 6HR MAX TEMP:  50;

$$

WIZ003>005-009-010-017-018-051300-
NORTH CENTRAL WISCONSIN

CITY           SKY/WX    TMP DP  RH WIND       PRES   REMARKS
MANITOWISH WTR SUNNY     36  36  99 CALM      30.30R
6HR MIN TEMP:  32; 6HR MAX TEMP:  39;

ARBOR VITAE    SUNNY     43  38  84 SE3       30.30R
6HR MIN TEMP:  37; 6HR MAX TEMP:  44;

WOODRUFF       SUNNY     43  38  84 SE3       30.30R
6HR MIN TEMP:  37; 6HR MAX TEMP:  44;

RHINELANDER    SUNNY     44  38  79 NE3       30.31R
6HR MIN TEMP:  36; 6HR MAX TEMP:  48;

EAGLE RIVER    SUNNY     38  37  96 CALM      30.31R
6HR MIN TEMP:  33; 6HR MAX TEMP:  39;

LAND O LAKES   SUNNY     36  35  94 CALM      30.32R
6HR MIN TEMP:  31; 6HR MAX TEMP:  36;

PHILLIPS       SUNNY     46  34  64 SE3       30.28S
6HR MIN TEMP:  41; 6HR MAX TEMP:  44;

TOMAHAWK       MOSUNNY   38  37  95 CALM      30.30R
6HR MIN TEMP:  31; 6HR MAX TEMP:  38;

MEDFORD        MOSUNNY   44  35  70 E9        30.27R
6HR MIN TEMP:  40; 6HR MAX TEMP:  49;

MERRILL        PTSUNNY   42  37  80 CALM      30.29R
6HR MIN TEMP:  38; 6HR MAX TEMP:  47;

$$

WIZ029-030-035-036-043>047-051300-
CENTRAL WISCONSIN

CITY           SKY/WX    TMP DP  RH WIND       PRES   REMARKS
WAUSAU         MOSUNNY   47  33  58 E6        30.27R
6HR MIN TEMP:  45; 6HR MAX TEMP:  50;

MOSINEE        SUNNY     45  34  65 E9        30.28R
MARSHFIELD     MOSUNNY   50  32  50 E7        30.26R
6HR MIN TEMP:  46; 6HR MAX TEMP:  51;

STEVENS POINT  PTSUNNY   46  34  62 E8        30.29R
6HR MIN TEMP:  45; 6HR MAX TEMP:  49;

WAUPACA        CLOUDY    50  38  64 CALM      30.30R
6HR MIN TEMP:  48; 6HR MAX TEMP:  53;

WAUTOMA        CLOUDY    50  39  65 NE7       30.28R
6HR MIN TEMP:  50; 6HR MAX TEMP:  53;

WISC RAPIDS    PTSUNNY   49  33  54 E9        30.28R
6HR MIN TEMP:  49; 6HR MAX TEMP:  53;

CAMP DOUGLAS   CLOUDY    52  39  62 E6        30.24R
$$

WIZ011>013-019>022-031-037>040-048>050-051300-
NORTHEAST WISCONSIN

CITY           SKY/WX    TMP DP  RH WIND       PRES   REMARKS
ANTIGO         MOSUNNY   45  33  62 CALM      30.30R
SHAWANO        PTSUNNY   49  37  65 NE7       30.31R
6HR MIN TEMP:  49; 6HR MAX TEMP:  53;

OCONTO         CLOUDY    45  38  76 S3        30.32R
6HR MIN TEMP:  39; 6HR MAX TEMP:  49;

STURGEON BAY   CLOUDY    46  34  61 E6        30.35R
6HR MIN TEMP:  45; 6HR MAX TEMP:  46;

GREEN BAY      CLOUDY    49  36  61 E6        30.31R
6HR MIN TEMP:  49; 6HR MAX TEMP:  52;

MANITOWOC      CLOUDY    46  37  71 NE6       30.30R
6HR MIN TEMP:  45; 6HR MAX TEMP:  51;

APPLETON       PTSUNNY   48  34  57 E6        30.29R
CLINTONVILLE   CLOUDY    45  36  70 CALM      30.30R
OSHKOSH        CLOUDY    51  37  58 E5        30.28R
6HR MIN TEMP:  51; 6HR MAX TEMP:  55;

$$

WIZ032>034-041-042-053>061-051300-
SOUTHWEST WISCONSIN

CITY           SKY/WX    TMP DP  RH WIND       PRES   REMARKS
LA CROSSE      CLOUDY    57  41  55 SE3       30.21R
6HR MIN TEMP:  53; 6HR MAX TEMP:  59;

SPARTA         CLOUDY    53  38  57 E7        30.24R
6HR MIN TEMP:  46; 6HR MAX TEMP:  55;

VIROQUA        CLOUDY    48  48 100 E15       30.21R
6HR MIN TEMP:  48; 6HR MAX TEMP:  56; 6HR PCP:  0.24;

BOSCOBEL       LGT RAIN  51  48  89 NE5       30.21R
6HR MIN TEMP:  51; 6HR MAX TEMP:  64; 6HR PCP:  0.09;

PRAIRIE DU CHI CLOUDY    52  47  84 E9        30.18R
6HR MIN TEMP:  51; 6HR MAX TEMP:  63; 6HR PCP:  0.10;

PLATTEVILLE    CLOUDY    51  49  93 E16G22    30.17S
6HR MIN TEMP:  51; 6HR MAX TEMP:  54; 6HR PCP:  0.10;

$$

WIZ056-057-062-063-064-067-068-051300-
SOUTH CENTRAL WISCONSIN

CITY           SKY/WX    TMP DP  RH WIND       PRES   REMARKS
REEDSBURG      RAIN      47  46  95 E6        30.24R
6HR MIN TEMP:  47; 6HR MAX TEMP:  57; 6HR PCP:  0.38;

BARABOO/DELLS  NOT AVBL
LONE ROCK      LGT RAIN  50  46  86 E18G26    30.22R
6HR MIN TEMP:  50; 6HR MAX TEMP:  60; 6HR PCP:  0.62;

MINERAL POINT  LGT RAIN  50  46  87 E13G18    30.19S
MADISON        LGT RAIN  50  44  80 E7        30.23R
6HR MIN TEMP:  50; 6HR MAX TEMP:  58; 6HR PCP:  0.15;

MIDDLETON      CLOUDY    50  46  84 E8        30.23R
6HR MIN TEMP:  50; 6HR MAX TEMP:  60; 6HR PCP:  0.23;

WATERTOWN      DRIZZLE   47  45  91 NE8       30.24S
6HR MIN TEMP:  47; 6HR MAX TEMP:  56;

MONROE         DRIZZLE   48  46  93 NE15      30.19R
JANESVILLE     RAIN      50  48  93 E15       30.18F
$$

WIZ051-052-058>065-066-070>072-051300-
SOUTHEAST WISCONSIN

CITY           SKY/WX    TMP DP  RH WIND       PRES   REMARKS
MILWAUKEE      LGT RAIN  44  39  82 NE9       30.27R FOG
6HR MIN TEMP:  44; 6HR MAX TEMP:  53; 6HR PCP:  0.11;

WAUKESHA       CLOUDY    46  39  76 E7        30.27R
MILWAUKEE/TIMM DRIZZLE   46  37  71 E5        30.27R
RACINE         LGT RAIN  45  41  86 NE6       30.27R
6HR MIN TEMP:  45; 6HR MAX TEMP:  52; 6HR PCP:  0.31;

BURLINGTON     LGT RAIN  46  45  94 E3        30.25R
6HR MIN TEMP:  46; 6HR MAX TEMP:  51; 6HR PCP:  0.09;

KENOSHA        LGT RAIN  47  44  90 E14       30.24R
6HR MIN TEMP:  47; 6HR MAX TEMP:  53; 6HR PCP:  0.30;

FOND DU LAC    CLOUDY    52  35  52 E6        30.27R
6HR MIN TEMP:  52; 6HR MAX TEMP:  54;

SHEBOYGAN      CLOUDY    45  36  70 NE8       30.28R
6HR MIN TEMP:  45; 6HR MAX TEMP:  48;

WEST BEND      RAIN      45  41  87 E5        30.27R
JUNEAU         LGT RAIN  47  43  84 E13       30.27R
6HR MIN TEMP:  47; 6HR MAX TEMP:  55; 6HR PCP:  0.03;

$$

LSZ147-162-051300-
LAKE SUPERIOR

STATION/POSITION TIME  TEMP    WIND        PRES    WAVE
                       AIR SEA DIR/SP/G            HT/PER
                 (UTC) (F)     (DEG/KT/KT) (MB)    (FT/S)
W MID LAKE BUOY  1150   41 34   70/  2/  4 1026.6R   0
DEVILS ISLAND    1200   50     110/  3/  3 1026.1R
PORT WING        1100   33     170/  4/  5 1025.1
SAXON HARBOR     1140   36        CALM     1025.1R
$$

LMZ867-665-643>646-051300-
LAKE MICHIGAN

STATION/POSITION TIME  TEMP    WIND        PRES    WAVE
                       AIR SEA DIR/SP/G            HT/PER
                 (UTC) (F)     (DEG/KT/KT) (MB)    (FT/S)
CHAMBERS ISLAND  1100   44      20/  3/  3 1026.1



USA.gov is the U.S. government's official web portal to all federal, state and local government web resources and services.